Powrót do katalogu

SL-8 DEB

AktywnyLEO
NORAD 22025·DEBRIS·🇷🇺 Russia

Wystrzelony Feb 12, 1991 z Plesetsk Cosmodrome

Loading…

Następne Przeloty (najbliższe 24 godziny)

TLE

ŚwieżeSource: Space-Track

Epoka: Sep 13, 2026, 16:35 UTC

1 22025U 91009CJ  26256.69126725  .00000003  00000-0  15644-3 0  9995
2 22025  73.9433 347.6174 0143193 239.9931 273.6159 12.31725095596245

Śledź SL-8 DEB w czasie rzeczywistym z AllMySat

Download on the App Store